TimePST,TemperatureF,Dew PointF,Humidity,Sea Level PressureIn,VisibilityMPH,Wind Direction,Wind SpeedMPH,Gust SpeedMPH,PrecipitationIn,Events,Conditions,WindDirDegrees,DateUTC
12:53 AM,39.0,32.0,76,30.18,10.0,SSW,5.8,-,N/A,,Clear,210,2012-12-06 08:53:00
1:53 AM,36.0,30.0,79,30.19,10.0,Calm,Calm,-,N/A,,Clear,0,2012-12-06 09:53:00
2:53 AM,35.1,30.0,82,30.19,10.0,South,3.5,-,N/A,,Clear,190,2012-12-06 10:53:00
3:53 AM,35.1,30.0,82,30.18,10.0,South,3.5,-,N/A,,Clear,180,2012-12-06 11:53:00
4:53 AM,35.1,30.9,85,30.17,10.0,SW,10.4,-,N/A,,Clear,220,2012-12-06 12:53:00
5:53 AM,37.0,32.0,82,30.17,10.0,South,5.8,-,N/A,,Clear,180,2012-12-06 13:53:00
6:53 AM,37.0,32.0,82,30.16,10.0,South,4.6,-,N/A,,Mostly Cloudy,190,2012-12-06 14:53:00
7:53 AM,39.0,32.0,76,30.16,10.0,Calm,Calm,-,N/A,,Overcast,0,2012-12-06 15:53:00
8:53 AM,41.0,33.1,73,30.15,10.0,WSW,4.6,-,N/A,,Partly Cloudy,240,2012-12-06 16:53:00
9:53 AM,42.1,33.1,70,30.15,10.0,SW,13.8,-,N/A,,Partly Cloudy,230,2012-12-06 17:53:00
10:53 AM,42.1,34.0,73,30.15,10.0,SW,15.0,21.9,N/A,,Overcast,230,2012-12-06 18:53:00
11:53 AM,45.0,35.1,68,30.12,10.0,SW,16.1,25.3,N/A,,Mostly Cloudy,230,2012-12-06 19:53:00
12:53 PM,46.9,34.0,61,30.10,10.0,SW,18.4,27.6,N/A,,Mostly Cloudy,230,2012-12-06 20:53:00
1:53 PM,46.9,33.1,59,30.07,10.0,SW,21.9,28.8,N/A,,Mostly Cloudy,220,2012-12-06 21:53:00
2:53 PM,46.9,34.0,61,30.06,10.0,SW,18.4,25.3,N/A,,Overcast,220,2012-12-06 22:53:00
3:53 PM,46.9,33.1,59,30.06,10.0,SW,25.3,34.5,N/A,,Scattered Clouds,230,2012-12-06 23:53:00
4:53 PM,46.0,33.1,61,30.06,10.0,SW,15.0,-,N/A,,Mostly Cloudy,230,2012-12-07 00:53:00
5:53 PM,46.0,34.0,63,30.06,10.0,WSW,15.0,24.2,N/A,,Mostly Cloudy,240,2012-12-07 01:53:00
6:53 PM,45.0,34.0,65,30.06,10.0,SSW,15.0,-,N/A,,Overcast,210,2012-12-07 02:53:00
7:53 PM,46.9,34.0,61,30.06,10.0,SW,20.7,26.5,N/A,,Overcast,230,2012-12-07 03:53:00
8:53 PM,46.0,34.0,63,30.08,10.0,SW,18.4,24.2,N/A,,Scattered Clouds,230,2012-12-07 04:53:00
9:53 PM,45.0,35.1,68,30.08,10.0,WSW,15.0,-,N/A,,Clear,240,2012-12-07 05:53:00
10:53 PM,44.1,35.1,71,30.10,10.0,WSW,17.3,-,N/A,,Clear,240,2012-12-07 06:53:00
11:53 PM,43.0,35.1,74,30.10,10.0,WSW,12.7,-,N/A,,Clear,250,2012-12-07 07:53:00